Theta_e
310 311 311 312 314 313 311 311 311 309 309 309 308 308 307 307 307 307 306 305 304 304 306 308 309 311 310 312 310 314 323 328 328 329 328 325 328 328 323 327 319 318 319 314 309
306 306 308 310 310 312 310 311 310 309 308 308 308 308 307 307 306 305 305 306 310 309 311 306 309 308 312 312 311 315 320 325 325 325 326 326 327 328 325 327 326 320 315 309 311
306 307 306 308 309 310 310 308 308 309 308 308 307 307 307 306 305 305 305 307 310 311 311 306 306 308 311 312 313 315 318 321 323 323 322 324 325 325 324 328 326 326 326 314 312
305 305 305 305 309 310 309 309 308 308 308 307 307 307 305 306 310 301 302 301 305 310 311 310 306 306 310 312 313 316 318 318 320 320 322 323 324 324 322 325 325 323 323 318 314
304 304 305 305 306 310 309 309 308 308 308 307 308 307 306 306 307 306 304 299 311 311 311 309 306 307 309 311 311 311 314 316 315 317 319 320 322 323 324 321 322 317 314 316 316
303 303 304 304 304 307 310 310 309 309 308 308 308 308 306 307 305 304 301 299 299 306 311 309 305 306 307 309 310 313 310 311 312 313 315 318 319 320 320 320 321 317 317 318 316
302 302 305 304 305 304 306 309 310 310 309 308 308 308 306 306 305 304 304 303 302 301 302 306 305 304 306 308 308 310 311 311 314 309 311 314 316 317 316 317 318 318 317 318 317
301 302 303 306 304 304 305 306 308 308 308 308 308 307 307 305 304 303 303 303 302 301 299 298 302 305 305 306 306 306 309 315 315 315 310 311 319 319 317 316 316 317 318 318 318
301 302 303 304 306 304 305 305 305 308 308 307 305 304 305 302 302 301 297 301 300 299 298 298 301 304 306 306 307 307 310 311 312 313 312 312 318 319 315 315 315 316 317 317 317
301 306 307 306 306 305 305 304 305 306 302 303 303 303 303 304 299 295 295 298 299 298 298 299 303 303 304 306 308 309 307 307 308 309 309 313 314 316 312 308 313 314 315 314 314
299 302 304 306 304 303 304 304 304 304 301 303 303 304 304 302 299 296 295 296 299 298 299 300 301 303 303 304 305 306 306 307 307 306 308 311 313 315 316 312 311 311 310 309 309
297 297 299 302 304 305 303 302 298 297 300 300 301 302 302 301 302 302 301 297 299 301 299 300 301 302 302 303 304 304 305 305 306 304 306 308 309 310 310 310 310 310 309 310 310
297 296 296 297 302 302 301 299 297 295 299 299 298 298 298 298 300 301 300 300 299 301 301 302 302 300 300 300 302 303 304 305 304 305 303 302 305 306 306 305 305 306 307 307 308
296 295 296 293 303 301 300 296 296 294 301 300 297 297 294 297 298 296 295 300 299 300 300 301 302 302 299 300 301 301 303 303 304 304 304 303 306 305 306 306 303 304 305 305 305
295 295 295 298 298 298 296 296 295 296 303 298 295 293 294 295 296 295 297 297 299 299 299 301 299 299 299 301 299 300 302 302 303 304 303 302 302 304 305 304 304 304 305 306 303
295 295 293 293 296 295 296 296 297 302 302 298 295 294 299 297 296 295 296 298 298 298 298 300 300 300 302 297 298 300 300 300 301 302 306 304 304 306 305 305 304 304 303 302 298
294 294 292 291 293 293 296 297 301 302 298 300 298 297 299 298 297 295 295 297 299 301 301 300 299 299 300 301 301 300 300 303 305 304 306 303 304 305 303 303 302 303 301 297 298
294 293 291 293 290 293 296 298 297 297 298 297 298 300 298 296 297 295 295 297 297 298 301 301 302 300 299 299 301 301 302 306 307 307 304 299 302 304 303 302 301 298 297 295 296
294 292 291 290 292 293 297 296 296 295 298 300 296 294 298 295 295 296 296 296 296 297 299 301 301 295 293 294 298 302 303 304 305 305 308 303 301 302 303 300 297 296 296 294 293
293 291 289 291 292 294 295 294 295 296 297 297 293 294 296 298 299 298 297 298 296 296 298 298 300 297 295 292 294 300 301 305 306 307 307 305 308 307 305 301 297 295 296 293 292
292 292 288 290 291 293 292 292 290 293 296 297 296 296 296 297 296 296 296 299 299 298 297 299 299 298 292 294 299 302 304 303 305 307 309 307 307 302 300 299 300 296 295 294 292
290 293 289 290 291 290 290 289 292 293 295 295 295 293 293 294 296 297 298 299 296 297 300 299 301 302 300 293 291 294 303 305 307 308 306 307 307 294 293 294 296 294 293 293 292
293 292 288 290 292 289 289 289 292 292 290 292 293 294 295 294 293 294 294 296 296 297 299 300 302 302 301 296 291 297 296 299 304 304 307 309 304 295 294 294 294 294 293 293 291
290 294 287 288 289 288 289 288 289 290 292 293 293 292 291 290 289 294 293 295 293 295 294 294 300 301 301 302 296 297 298 297 299 304 303 304 304 303 295 296 295 295 294 292 290
290 292 292 291 288 290 290 288 289 290 291 291 290 290 290 289 290 290 291 290 290 294 290 291 294 294 294 295 297 300 300 299 298 299 301 300 300 297 296 296 295 294 294 293 290
295 291 283 291 285 289 290 289 289 289 289 288 290 289 289 289 290 290 288 288 288 289 288 290 291 291 294 295 297 299 298 298 300 300 300 299 299 297 299 297 295 295 295 294 290
292 290 291 293 288 288 290 290 290 290 288 289 290 289 289 289 290 289 289 289 288 287 287 288 290 290 290 293 290 295 295 297 298 292 293 298 296 293 294 294 289 289 290 290 287
Wind_Speed
17 20 21 20 19 17 19 17 15 16 16 17 18 19 20 21 23 20 17 16 13 9 10 7 6 12 14 9 6 2 10 13 19 19 20 3 11 12 4 11 6 8 6 3 7
18 18 21 20 20 18 20 18 16 16 16 17 19 20 21 22 24 24 21 11 13 16 10 14 11 12 8 10 7 8 10 24 18 20 18 16 18 18 7 12 13 9 9 5 12
19 20 20 21 19 14 18 18 21 18 17 17 20 21 21 21 11 5 2 8 11 11 15 4 12 12 15 11 11 9 23 18 19 17 16 17 16 14 13 19 17 14 16 13 14
21 22 21 21 20 13 15 16 20 18 16 18 19 21 21 10 9 2 7 21 15 8 16 11 9 11 13 18 18 17 23 23 24 18 8 15 18 15 19 22 17 14 8 12 15
21 22 22 23 19 13 15 17 18 18 17 17 17 18 12 8 12 26 26 15 5 6 17 16 17 16 19 13 19 22 21 18 18 21 18 16 20 21 22 17 16 8 8 11 14
21 22 25 23 22 16 14 18 19 18 18 17 17 16 6 19 14 16 13 11 5 5 9 15 8 12 11 18 16 10 13 22 21 19 12 15 23 23 19 20 20 14 15 16 16
24 24 25 24 21 20 18 18 20 20 19 22 20 17 8 24 22 25 25 21 19 15 12 15 19 8 5 13 15 18 18 15 22 14 16 8 22 30 21 20 22 23 20 20 19
27 27 26 26 23 21 19 19 20 20 22 20 21 10 12 15 17 24 21 20 20 16 17 16 12 16 11 7 4 6 10 20 21 23 11 14 29 20 19 24 24 25 23 22 22
28 29 26 23 22 19 20 20 19 18 19 18 8 5 13 10 9 9 6 9 10 11 11 6 6 9 8 15 12 12 18 23 20 14 11 15 26 20 9 13 21 21 21 20 22
27 30 27 22 19 20 19 19 15 14 5 2 2 4 8 2 5 9 11 7 4 2 4 7 6 9 12 15 19 26 23 17 19 7 10 11 24 24 10 9 16 17 17 18 21
27 27 25 20 18 16 20 8 6 2 3 9 17 20 24 19 11 5 4 4 4 5 9 10 10 18 31 24 27 20 18 23 22 6 10 17 24 30 22 19 19 18 17 17 18
28 27 25 21 21 15 13 6 2 5 13 16 26 24 29 22 14 20 20 6 6 12 9 6 20 28 17 16 21 21 20 24 23 4 9 11 20 26 21 22 22 22 21 23 21
28 29 26 20 14 9 8 6 6 5 7 8 4 5 4 2 4 6 5 6 15 16 12 16 13 3 15 17 20 22 23 27 25 13 5 4 15 25 23 21 21 24 24 23 22
28 30 25 23 4 12 2 14 8 4 5 5 2 1 2 2 4 3 4 7 5 10 16 15 18 24 19 19 17 21 22 22 19 14 14 6 13 25 22 20 17 20 20 21 23
26 29 26 11 8 6 11 14 7 2 6 2 1 1 1 4 8 2 2 6 12 12 6 7 6 4 13 22 10 18 10 18 17 15 17 14 8 24 14 21 23 19 19 19 12
25 26 25 11 7 6 8 9 3 3 9 3 2 3 7 3 3 2 2 1 2 8 17 23 13 11 18 4 6 17 10 9 3 10 10 27 16 23 19 27 23 17 14 11 8
25 24 21 9 5 12 8 4 2 5 4 2 2 4 10 8 8 2 2 4 6 5 8 11 20 20 15 19 16 6 9 4 5 7 11 5 13 23 5 4 7 14 6 4 4
23 26 22 6 8 7 3 1 6 2 6 3 4 13 14 15 6 2 5 10 9 12 9 7 8 6 9 22 10 14 15 6 7 6 8 7 12 15 11 12 10 3 6 6 6
22 20 7 5 4 2 1 3 5 5 3 7 16 15 6 2 4 7 6 9 5 10 10 4 6 1 2 1 8 12 11 15 4 2 4 8 15 17 19 11 3 7 9 8 7
14 11 4 2 1 1 2 7 5 3 4 5 10 8 12 9 6 9 9 5 5 5 8 5 8 5 4 1 2 7 2 5 5 6 9 11 12 12 5 5 5 7 9 7 6
6 4 8 7 3 2 4 7 5 4 3 5 8 11 12 11 12 11 9 9 3 5 3 3 7 4 1 7 13 6 5 6 2 6 4 6 5 6 8 9 8 9 9 6 6
4 4 11 9 2 1 3 5 3 6 3 5 5 11 16 18 13 12 12 6 8 3 7 5 4 8 11 1 2 3 12 6 4 4 8 7 10 5 8 9 4 10 9 7 6
3 3 7 5 5 6 4 4 5 5 8 4 6 6 5 5 7 7 11 5 11 6 7 5 3 3 3 2 1 3 6 6 8 2 8 6 4 9 14 12 11 9 7 5 6
2 4 3 4 3 6 6 6 6 8 6 6 6 4 5 10 12 7 13 2 7 5 16 10 4 5 9 6 1 4 7 9 9 6 11 16 16 14 7 9 7 6 6 5 5
4 6 5 5 7 13 11 8 12 8 7 8 4 9 7 4 4 4 1 6 7 2 5 4 5 9 15 13 9 6 6 10 12 16 10 11 8 1 6 2 3 4 3 3 5
7 4 3 5 5 16 18 13 19 17 9 7 12 17 9 8 11 7 2 2 5 3 5 0 4 6 7 8 10 11 13 12 15 16 18 20 20 10 13 3 3 4 2 1 4
11 8 7 12 7 8 12 21 23 21 12 16 15 12 12 21 13 11 10 8 9 6 4 3 3 5 7 9 15 8 5 5 4 9 5 5 6 11 9 11 9 9 8 7 7
Wind_Direction
346 342 327 328 315 309 316 320 327 331 332 332 331 329 325 322 313 302 267 254 266 270 250 250 202 200 210 219 201 239 237 234 227 232 238 237 244 232 262 247 217 198 251 77 131
348 338 336 331 315 300 305 310 318 323 325 328 328 328 327 326 311 283 274 289 302 257 249 213 217 188 206 216 197 203 230 237 233 244 254 251 240 249 227 224 233 229 221 171 159
347 341 333 328 326 302 295 309 309 313 317 324 327 325 329 331 302 259 39 320 310 254 224 255 241 211 227 216 204 213 237 236 242 246 251 251 241 238 238 251 250 236 233 195 190
346 341 336 324 328 307 296 293 300 301 307 321 325 320 325 325 292 349 268 330 321 240 200 212 217 215 230 225 220 248 241 240 243 241 237 239 250 236 237 249 264 250 260 194 204
352 346 338 325 325 327 296 292 293 292 303 316 319 315 324 272 261 288 305 317 313 202 211 213 208 213 231 229 233 240 252 250 246 246 243 254 248 251 248 249 251 245 211 221 221
353 348 341 330 330 317 302 291 287 291 296 303 309 309 273 269 263 295 302 309 350 290 241 225 238 232 244 243 225 244 242 258 257 252 244 238 253 251 248 250 255 236 234 237 230
353 346 343 335 326 317 308 290 290 287 292 298 302 301 240 259 273 284 283 283 285 283 276 252 239 247 274 249 254 252 253 251 256 266 253 233 262 244 246 248 246 248 241 244 234
352 349 346 341 326 321 307 301 304 284 290 293 298 291 268 273 276 278 283 282 272 256 235 263 256 247 252 304 274 255 234 248 246 232 238 190 259 251 241 230 241 249 246 244 239
356 349 344 339 329 326 316 307 301 288 292 293 289 235 272 288 272 295 290 261 290 238 229 248 207 234 224 235 254 240 251 241 256 218 208 197 256 264 253 229 237 244 246 246 246
359 4 358 350 341 340 340 332 313 301 320 89 164 272 243 243 327 314 300 264 248 215 216 210 218 219 226 215 227 237 244 259 265 202 215 221 249 257 243 235 242 250 252 251 249
360 358 7 2 0 355 349 350 3 285 10 274 280 252 282 299 316 283 308 273 222 230 212 203 218 224 225 221 238 254 256 252 252 227 209 227 243 256 253 229 249 249 252 250 251
358 354 352 360 354 346 18 44 42 304 302 244 253 270 278 285 284 272 272 276 209 234 222 218 232 240 257 252 241 244 245 256 264 208 218 237 248 264 261 246 249 254 252 250 252
356 352 346 343 335 2 62 46 338 312 278 313 234 251 279 181 264 297 223 238 247 255 236 238 242 207 266 252 238 239 238 246 258 265 226 285 271 267 260 249 252 251 252 255 252
354 354 349 345 34 346 37 346 333 309 289 277 263 186 216 239 254 247 278 215 215 266 251 257 263 261 261 253 239 253 239 254 257 262 257 185 276 271 262 259 242 245 248 248 248
350 353 348 2 317 334 321 339 332 249 305 73 189 331 246 254 320 162 313 200 241 238 219 245 264 312 244 246 211 246 256 244 249 245 265 227 250 268 261 254 254 249 236 242 244
345 346 344 350 341 334 337 327 290 218 248 317 289 352 344 283 245 288 244 281 341 255 243 254 259 253 248 315 277 263 257 250 242 244 245 243 228 271 252 252 257 255 250 244 209
338 337 336 326 317 329 338 322 258 227 11 327 335 337 326 313 312 258 234 224 246 285 275 285 249 241 229 244 257 253 233 226 229 218 238 256 214 240 63 141 289 259 227 182 147
329 329 329 280 313 313 305 239 223 263 259 358 329 316 305 308 272 272 282 280 241 242 278 287 292 215 216 223 219 216 219 206 221 215 257 161 214 235 255 279 255 200 149 123 109
318 326 320 329 322 257 228 208 236 222 329 335 317 301 286 311 280 305 269 268 265 204 211 243 252 345 195 262 228 232 232 214 271 271 278 217 246 280 265 254 191 165 152 127 110
323 311 253 97 38 102 216 244 246 250 313 296 287 260 284 296 324 323 296 275 266 224 261 263 266 277 292 176 216 233 282 174 196 222 231 239 256 249 291 253 202 173 155 119 104
311 301 195 165 164 145 223 235 280 294 255 228 274 278 290 294 284 283 266 275 328 316 327 296 226 231 219 208 217 202 211 227 261 229 242 256 241 13 338 337 250 182 151 126 102
178 242 170 173 225 196 223 208 272 263 247 288 289 279 271 271 272 256 261 262 1 301 281 230 252 234 243 24 342 321 229 211 244 185 232 276 259 18 345 302 261 155 127 108 87
220 221 186 187 234 217 231 254 257 242 257 247 261 253 355 317 311 283 300 63 356 332 347 352 241 257 226 161 75 222 252 250 242 250 243 238 183 50 46 50 83 94 91 83 84
196 234 181 203 224 213 229 235 232 216 227 224 243 279 289 291 291 288 296 338 336 357 19 1 296 281 284 335 349 212 216 234 252 256 254 243 274 306 50 63 41 68 71 65 54
203 229 204 205 220 217 211 207 218 217 217 218 238 229 211 250 273 257 272 319 316 1 28 52 296 4 315 297 268 264 257 211 219 244 245 272 271 33 36 314 111 25 28 46 44
267 216 189 244 231 218 211 205 232 228 203 217 224 241 206 214 229 257 243 226 259 296 346 178 282 325 304 332 338 269 264 249 242 236 249 257 264 345 319 302 59 352 313 10 49
263 267 236 227 198 214 208 220 231 231 225 229 216 223 197 226 229 223 226 244 249 270 282 259 254 288 273 301 328 280 276 255 102 35 341 293 338 333 328 352 31 357 25 56 40